User: anonymous   Login
Location: Unspecified
(0.0000°N, 0.0000°E)
Time: 20:17:01
(UTC+00:00)
Language:

LEMUR 2 KADI - Orbit

View from above orbital plane
View from above orbital plane
View from above satellite
View from above satellite

Ground track
Ground track

The orbit is defined by the following mean orbital elements,

1 43184U          26145.52991501 +.00000000 +00000-0 +16731-2 0 00003
2 43184  97.4402  75.9216 0005376 143.3626 216.8018 15.94652847    01
Epoch (UTC): 25 May 2026 12:43:04
Eccentricity: 0.0005376
inclination: 97.4402°
perigee height: 286 km
apogee height: 293 km
right ascension of ascending node: 75.9216°
argument of perigee: 143.3626°
revolutions per day: 15.94652847
mean anomaly at epoch: 216.8018°

The dashed part of the orbit path shows where the satellite is in the earth's shadow,  

DLR